Regional Weather Roundup
Issued by NWS Green Bay, WI

Home | Current Version | Previous Version | Text Only | Print | Product List | Glossary On
Versions: 1 2 3 4 5 6 7 8 9 10 11 12 13 14 15 16 17 18 19 20 21 22 23 24 25 26 27 28 29 30 31 32 33 34 35 36 37 38 39 40 41 42 43 44 45 46 47 48 49 50
000
ASUS43 KGRB 050711
RWRGRB

NORTH-CENTRAL AND NORTHEAST WISCONSIN REGIONAL WEATHER ROUNDUP
NATIONAL WEATHER SERVICE GREEN BAY WI
100 AM CST MON DEC 05 2016

WIZ005-009-010>012-018-019-050800-
NORTH CENTRAL WISCONSIN

CITY           SKY/WX    TMP DP  RH WIND       PRES   REMARKS
IRONWOOD       LGT RAIN  34  30  86 W17G24    29.68R
MANITOWISH WTR LGT SNOW  31  31 100 SW9G17    29.67S
ARBOR VITAE    LGT SNOW  33  32  96 SW7       29.69S
EAGLE RIVER    CLOUDY    31  31 100 SW9       29.68S FOG
LAND O LAKES   CLOUDY    31  31 100 SW6       29.68F FOG
RHINELANDER    CLOUDY    32  32 100 W10       29.71R FOG
PHILLIPS       CLOUDY    32  31  96 SW8       29.70S
ANTIGO         CLOUDY    31  31 100 SW12      29.73S FOG
TOMAHAWK       CLOUDY    32  30  92 W9        29.72S
MERRILL        CLOUDY    33  32  96 W9        29.74S
$$

WIZ013-073-050800-
NORTHEAST WISCONSIN

CITY           SKY/WX    TMP DP  RH WIND       PRES   REMARKS
IRON MOUNTAIN  CLOUDY    31  27  85 S5        29.70S
MARINETTE      CLOUDY    31  31 100 SW7       29.78R FOG
OCONTO         CLOUDY    32  30  94 SW8       29.79S
$$

WIZ017-030-035>037-045-050800-
CENTRAL WISCONSIN

CITY           SKY/WX    TMP DP  RH WIND       PRES   REMARKS
MEDFORD        CLOUDY    32  30  92 W10G17    29.74S
WAUSAU         CLOUDY    33  31  92 SW10      29.75S
MOSINEE        CLOUDY    32  32 100 W9        29.77S
MARSHFIELD     CLOUDY    33  31  92 W10       29.76S
WISC RAPIDS    CLOUDY    33  33 100 SW7       29.80S
STEVENS POINT  CLOUDY    32  31  99 SW7       29.79R
WAUPACA        CLOUDY    34  32  92 CALM      29.80F
SHAWANO        CLOUDY    34  32  93 CALM      29.78F
CLINTONVILLE   CLOUDY    32  32 100 SW7       29.79S
WAUTOMA        CLOUDY    33  31  92 SW10      29.82F
$$

WIZ038-039-048-051-050800-
FOX VALLEY

CITY           SKY/WX    TMP DP  RH WIND       PRES   REMARKS
NWS GREEN BAY  CLOUDY    34  32  92 SW8       29.80S
APPLETON       CLOUDY    32  32 100 SW10      29.80R
OSHKOSH        CLOUDY    33  30  88 SW7       29.82S
FOND DU LAC    CLOUDY    33  29  85 SW9       29.84S
$$

WIZ022-050-052-050800-
EAST CENTRAL WISCONSIN

CITY           SKY/WX    TMP DP  RH WIND       PRES   REMARKS
EPHRAIM        CLOUDY    32  32  99 W13G21    29.75R
WASHINGTON ISL CLOUDY    34  31  90 W12G20    29.75R
STURGEON BAY   CLOUDY    32  31  96 SW12      29.78S
MANITOWOC      MOCLDY    32  30  92 SW7       29.83R
SHEBOYGAN      CLOUDY    32  29  88 SW9       29.84R
$$

LMZ563-521-522-541>543-050800-
LAKESHORE

STATION/POSITION TIME  TEMP    WIND        PRES    VSBY  WAVE
                       AIR SEA DIR/SP/G                  HT/PER
                 (UTC) (F)     (DEG/KT/KT) (MB)    (MI)  (FT/S)
SHEBOYGAN LKSHOR 0700   33     230/ 11/ 13 1010.9S
KEWAUNEE LKSHORE 0642   33     240/  5/ 10 1008.8R
ALGOMA MARINA    0651          250/  9/ 12   N/A
NORTHPORT PIER   0640   34     240/  3/  8 1007.8R
SISTER BAY LKSHO 0653   35     250/ 18/ 22   N/A
CHAMBERS ISLAND  0640   33     220/ 10/ 17 1007.8R
MENOMINEE LKSHOR 0642   32     220/ 10/ 15 1007.3R
$$



USA.gov is the U.S. government's official web portal to all federal, state and local government web resources and services.